Location: Fort Worth, Tx
(32.7431°N, 97.3695°W)
Time: 19:23:38
(UTC-04:00)

Transit 4A - Pass Details

Date: 06 March 2024
Orbit: 871 x 972 km, 66.8° (Epoch: 22 April)

Event Time Altitude Azimuth Distance (km) Brightness Sun altitude
Rises 01:56:27 0° 261° (W) 3,593 - -62.5°
Reaches altitude 10° 02:00:59 10° 291° (WNW) 2,627 - -62.3°
Maximum altitude 02:03:11 12° 313° (NW) 2,476 - -62.2°
Drops below altitude 10° 02:05:22 10° 334° (NNW) 2,604 - -62.1°
Sets 02:09:50 0° 5° (N) 3,523 - -61.9°
